Zurück zum Katalog

GLOBALSTAR M090

AktivKommunikationLEO
NORAD 38044·PAYLOAD·🇺🇸 United States

Gestartet Dec 28, 2011 von Baikonur Cosmodrome

Loading…

Nächste Überflüge (nächste 24 Stunden)

TLE

AktuellSource: Space-Track

Epoche: Sep 14, 2026, 20:40 UTC

1 38044U 11080E   26257.86138309 -.00000118  00000-0 -82127-4 0  9995
2 38044  52.0123  55.5238 0000877 113.4094  50.3246 12.62268218681032

Verfolge GLOBALSTAR M090 in Echtzeit mit AllMySat

Download on the App Store